PAS108 WIII-WADD

Flight info

Callsign PAS108
Flight time 1h 19m
Altitude 35000
Route CA T3 MOVMO
Aircraft A320/M-SDE3FGHIRWY/LB1

Departure

Time 2026-05-06 01:59
Airport Soekarno-Hatta International Airport (WIII)

Arrival

Time 2026-05-06 03:18
Airport Denpasar I Gusti Ngurah Rai International Airport (WADD)
Time Latitude Longitude Altitude Speed Heading
2026-05-06 01:37 -6.11389 106.67028 38 ft 0 kts 69°
2026-05-06 01:39 -6.11389 106.67027 38 ft 0 kts 69°
2026-05-06 01:51 -6.11391 106.67022 38 ft 2 kts 69°
2026-05-06 01:51 -6.11397 106.67007 36 ft 2 kts 66°
2026-05-06 01:51 -6.11404 106.66992 37 ft 2 kts 64°
2026-05-06 01:51 -6.11411 106.66977 35 ft 2 kts 57°
2026-05-06 01:52 -6.11421 106.66963 36 ft 2 kts 35°
2026-05-06 01:52 -6.11436 106.66958 38 ft 2 kts 343°
2026-05-06 01:52 -6.11442 106.66960 37 ft 0 kts 339°
2026-05-06 01:54 -6.11435 106.66957 38 ft 4 kts 340°
2026-05-06 01:54 -6.11403 106.66945 38 ft 7 kts 339°
2026-05-06 01:54 -6.11344 106.66921 38 ft 11 kts 338°
2026-05-06 01:54 -6.11272 106.66892 38 ft 10 kts 338°
2026-05-06 01:55 -6.11212 106.66867 38 ft 9 kts 336°
2026-05-06 01:55 -6.11161 106.66845 38 ft 7 kts 336°
2026-05-06 01:55 -6.11121 106.66849 36 ft 7 kts 34°
2026-05-06 01:55 -6.11090 106.66906 38 ft 12 kts 68°
2026-05-06 01:56 -6.11053 106.66964 37 ft 9 kts 31°
2026-05-06 01:56 -6.10999 106.66972 39 ft 7 kts 349°
2026-05-06 01:56 -6.10961 106.66952 37 ft 6 kts 318°
2026-05-06 01:56 -6.10930 106.66909 39 ft 8 kts 322°
2026-05-06 01:57 -6.10910 106.66869 38 ft 6 kts 249°
2026-05-06 01:57 -6.10912 106.66864 38 ft 0 kts 249°
2026-05-06 01:58 -6.10982 106.66688 39 ft 65 kts 247°
2026-05-06 01:58 -6.11228 106.66075 38 ft 124 kts 249°
2026-05-06 01:58 -6.11614 106.65108 44 ft 171 kts 247°
2026-05-06 01:58 -6.12074 106.63960 531 ft 179 kts 247°
2026-05-06 01:59 -6.12528 106.62787 1184 ft 181 kts 252°
2026-05-06 01:59 -6.12541 106.61497 1601 ft 197 kts 286°
2026-05-06 01:59 -6.12089 106.60114 1864 ft 221 kts 290°
2026-05-06 01:59 -6.11524 106.58584 2190 ft 246 kts 291°
2026-05-06 02:00 -6.10900 106.56901 2647 ft 267 kts 291°
2026-05-06 02:00 -6.10238 106.55120 3357 ft 276 kts 295°
2026-05-06 02:00 -6.09133 106.53555 4133 ft 279 kts 320°
2026-05-06 02:00 -6.07460 106.52585 4933 ft 279 kts 346°
2026-05-06 02:01 -6.05542 106.52425 5718 ft 278 kts 11°
2026-05-06 02:01 -6.03742 106.53089 6480 ft 277 kts 36°
2026-05-06 02:01 -6.02383 106.54442 7217 ft 277 kts 60°
2026-05-06 02:01 -6.01703 106.56238 7962 ft 278 kts 80°
2026-05-06 02:02 -6.01341 106.58155 8722 ft 281 kts 80°
2026-05-06 02:02 -6.00972 106.60091 9471 ft 284 kts 79°
2026-05-06 02:02 -6.00595 106.62049 10170 ft 288 kts 79°
2026-05-06 02:02 -6.00205 106.64059 10429 ft 308 kts 79°
2026-05-06 02:03 -5.99776 106.66249 10570 ft 331 kts 79°
2026-05-06 02:03 -5.99384 106.68607 10680 ft 352 kts 87°
2026-05-06 02:03 -5.99696 106.71100 10803 ft 371 kts 107°
2026-05-06 02:03 -6.00600 106.73590 10959 ft 387 kts 110°
2026-05-06 02:04 -6.01575 106.76139 11369 ft 394 kts 110°
2026-05-06 02:04 -6.02574 106.78714 11886 ft 397 kts 111°
2026-05-06 02:04 -6.03584 106.81309 12391 ft 400 kts 110°
2026-05-06 02:04 -6.04597 106.83924 12887 ft 403 kts 110°
2026-05-06 02:05 -6.05610 106.86563 13378 ft 406 kts 110°
2026-05-06 02:05 -6.06623 106.89221 13851 ft 409 kts 110°
2026-05-06 02:05 -6.07641 106.91895 14266 ft 411 kts 110°
2026-05-06 02:05 -6.08666 106.94591 14672 ft 415 kts 110°
2026-05-06 02:06 -6.09698 106.97309 15045 ft 418 kts 110°
2026-05-06 02:06 -6.10735 107.00037 15434 ft 421 kts 110°
2026-05-06 02:06 -6.11789 107.02805 15814 ft 424 kts 110°
2026-05-06 02:06 -6.12846 107.05586 16191 ft 427 kts 110°
2026-05-06 02:07 -6.13909 107.08383 16561 ft 430 kts 110°
2026-05-06 02:07 -6.14980 107.11199 16925 ft 433 kts 110°
2026-05-06 02:07 -6.16057 107.14035 17286 ft 436 kts 110°
2026-05-06 02:07 -6.17128 107.16852 17640 ft 439 kts 110°
2026-05-06 02:08 -6.18238 107.19763 17989 ft 442 kts 110°
2026-05-06 02:08 -6.19326 107.22618 18288 ft 445 kts 110°
2026-05-06 02:08 -6.20432 107.25524 18603 ft 447 kts 110°
2026-05-06 02:08 -6.21543 107.28452 18900 ft 449 kts 110°
2026-05-06 02:09 -6.22657 107.31386 19201 ft 451 kts 110°
2026-05-06 02:09 -6.23779 107.34338 19504 ft 453 kts 110°
2026-05-06 02:09 -6.24906 107.37301 19787 ft 455 kts 110°
2026-05-06 02:09 -6.26036 107.40273 20072 ft 456 kts 110°
2026-05-06 02:10 -6.27171 107.43262 20350 ft 458 kts 110°
2026-05-06 02:10 -6.28306 107.46261 20627 ft 460 kts 110°
2026-05-06 02:10 -6.29445 107.49274 20893 ft 462 kts 110°
2026-05-06 02:10 -6.30590 107.52301 21152 ft 464 kts 110°
2026-05-06 02:11 -6.31743 107.55338 21402 ft 466 kts 110°
2026-05-06 02:11 -6.32885 107.58343 21641 ft 467 kts 110°
2026-05-06 02:11 -6.34049 107.61398 21877 ft 469 kts 110°
2026-05-06 02:11 -6.35214 107.64466 22099 ft 471 kts 110°
2026-05-06 02:12 -6.36381 107.67544 22316 ft 472 kts 110°
2026-05-06 02:12 -6.37550 107.70633 22522 ft 473 kts 110°
2026-05-06 02:12 -6.38720 107.73732 22717 ft 475 kts 110°
2026-05-06 02:12 -6.39896 107.76840 22903 ft 476 kts 110°
2026-05-06 02:13 -6.41078 107.79955 23108 ft 478 kts 110°
2026-05-06 02:13 -6.42266 107.83082 23304 ft 479 kts 110°
2026-05-06 02:13 -6.43456 107.86221 23487 ft 481 kts 110°
2026-05-06 02:13 -6.44647 107.89366 23651 ft 482 kts 110°
2026-05-06 02:14 -6.45839 107.92521 23807 ft 483 kts 110°
2026-05-06 02:14 -6.47031 107.95685 23972 ft 484 kts 110°
2026-05-06 02:14 -6.48225 107.98853 24189 ft 484 kts 110°
2026-05-06 02:14 -6.49421 108.02009 24427 ft 483 kts 110°
2026-05-06 02:15 -6.50620 108.05160 24676 ft 482 kts 110°
2026-05-06 02:15 -6.51802 108.08267 24921 ft 482 kts 110°
2026-05-06 02:15 -6.52995 108.11417 25169 ft 481 kts 110°
2026-05-06 02:15 -6.54182 108.14559 25420 ft 481 kts 110°
2026-05-06 02:16 -6.55366 108.17704 25689 ft 480 kts 110°
2026-05-06 02:16 -6.56547 108.20841 25954 ft 480 kts 110°
2026-05-06 02:16 -6.57730 108.23977 26237 ft 479 kts 110°
2026-05-06 02:16 -6.58915 108.27108 26502 ft 479 kts 110°
2026-05-06 02:17 -6.60099 108.30238 26790 ft 478 kts 110°
2026-05-06 02:17 -6.61278 108.33363 27070 ft 478 kts 110°
2026-05-06 02:17 -6.62453 108.36486 27361 ft 477 kts 110°
2026-05-06 02:17 -6.63630 108.39612 27662 ft 477 kts 110°
2026-05-06 02:18 -6.64802 108.42728 27971 ft 476 kts 110°
2026-05-06 02:18 -6.65975 108.45844 28272 ft 476 kts 110°
2026-05-06 02:18 -6.67150 108.48954 28581 ft 475 kts 110°
2026-05-06 02:18 -6.68327 108.52067 28874 ft 475 kts 110°
2026-05-06 02:19 -6.69455 108.55186 29161 ft 474 kts 106°
2026-05-06 02:19 -6.70182 108.58373 29453 ft 473 kts 98°
2026-05-06 02:19 -6.70679 108.61652 29749 ft 473 kts 98°
2026-05-06 02:19 -6.71175 108.64920 30040 ft 473 kts 98°
2026-05-06 02:20 -6.72175 108.71451 30565 ft 472 kts 98°
2026-05-06 02:20 -6.72675 108.74708 30833 ft 471 kts 98°
2026-05-06 02:20 -6.73173 108.77968 31100 ft 471 kts 98°
2026-05-06 02:21 -6.73671 108.81222 31376 ft 470 kts 98°
2026-05-06 02:21 -6.74168 108.84473 31662 ft 470 kts 98°
2026-05-06 02:21 -6.74665 108.87721 31943 ft 469 kts 98°
2026-05-06 02:21 -6.75164 108.90960 32217 ft 469 kts 98°
2026-05-06 02:22 -6.75665 108.94197 32500 ft 468 kts 98°
2026-05-06 02:22 -6.76164 108.97433 32782 ft 468 kts 98°
2026-05-06 02:22 -6.76662 109.00668 33071 ft 467 kts 98°
2026-05-06 02:22 -6.77159 109.03896 33363 ft 467 kts 98°
2026-05-06 02:23 -6.77654 109.07119 33657 ft 466 kts 98°
2026-05-06 02:23 -6.78147 109.10339 33948 ft 466 kts 98°
2026-05-06 02:23 -6.78635 109.13558 34206 ft 465 kts 98°
2026-05-06 02:23 -6.79122 109.16771 34447 ft 465 kts 98°
2026-05-06 02:24 -6.79610 109.19987 34690 ft 464 kts 98°
2026-05-06 02:24 -6.80097 109.23194 34862 ft 465 kts 98°
2026-05-06 02:24 -6.80582 109.26375 34914 ft 468 kts 98°
2026-05-06 02:25 -6.81571 109.32892 34912 ft 473 kts 98°
2026-05-06 02:25 -6.82573 109.39446 34912 ft 474 kts 99°
2026-05-06 02:26 -6.83578 109.46005 34911 ft 474 kts 99°
2026-05-06 02:26 -6.84578 109.52571 34913 ft 474 kts 98°
2026-05-06 02:27 -6.85575 109.59130 34910 ft 474 kts 98°
2026-05-06 02:27 -6.86574 109.65702 34912 ft 474 kts 98°
2026-05-06 02:28 -6.87565 109.72219 34913 ft 474 kts 98°
2026-05-06 02:28 -6.88554 109.78783 34914 ft 474 kts 98°
2026-05-06 02:29 -6.89541 109.85347 34911 ft 474 kts 98°
2026-05-06 02:29 -6.90036 109.88630 34912 ft 474 kts 98°
2026-05-06 02:30 -6.90862 109.94227 34911 ft 474 kts 98°
2026-05-06 02:30 -6.91857 110.00786 34909 ft 474 kts 98°
2026-05-06 02:31 -6.92857 110.07353 34911 ft 474 kts 98°
2026-05-06 02:31 -6.93846 110.13874 34912 ft 474 kts 98°
2026-05-06 02:32 -6.94838 110.20433 34914 ft 474 kts 98°
2026-05-06 02:32 -6.95818 110.27000 34919 ft 474 kts 98°
2026-05-06 02:33 -6.96797 110.33560 34918 ft 474 kts 98°
2026-05-06 02:33 -6.97122 110.35726 34919 ft 474 kts 98°
2026-05-06 02:34 -6.97632 110.46773 34916 ft 474 kts 91°
2026-05-06 02:34 -6.97748 110.53405 34909 ft 474 kts 91°
2026-05-06 02:35 -6.97869 110.60035 34906 ft 474 kts 91°
2026-05-06 02:35 -6.97984 110.66672 34897 ft 474 kts 91°
2026-05-06 02:36 -6.98099 110.73310 34894 ft 474 kts 91°
2026-05-06 02:36 -6.98222 110.79942 34893 ft 474 kts 91°
2026-05-06 02:37 -6.98337 110.86540 34894 ft 474 kts 90°
2026-05-06 02:37 -6.98443 110.93178 34896 ft 474 kts 90°
2026-05-06 02:38 -6.98556 110.99817 34899 ft 475 kts 91°
2026-05-06 02:38 -6.98673 111.06464 34901 ft 475 kts 91°
2026-05-06 02:39 -6.98787 111.13105 34898 ft 475 kts 91°
2026-05-06 02:39 -6.98899 111.19756 34897 ft 475 kts 91°
2026-05-06 02:40 -6.98993 111.25283 34898 ft 475 kts 91°
2026-05-06 02:40 -6.99101 111.31937 34901 ft 475 kts 91°
2026-05-06 02:41 -6.99314 111.39668 34902 ft 475 kts 96°
2026-05-06 02:41 -7.01000 111.46075 34905 ft 475 kts 113°
2026-05-06 02:42 -7.03164 111.51201 34900 ft 475 kts 113°
2026-05-06 02:42 -7.06154 111.58324 34899 ft 475 kts 113°
2026-05-06 02:43 -7.08284 111.63426 34900 ft 475 kts 113°
2026-05-06 02:43 -7.10846 111.69553 34895 ft 475 kts 113°
2026-05-06 02:44 -7.13411 111.75682 34897 ft 475 kts 113°
2026-05-06 02:44 -7.15979 111.81811 34888 ft 475 kts 113°
2026-05-06 02:45 -7.18537 111.87933 34893 ft 475 kts 113°
2026-05-06 02:45 -7.21092 111.94076 34895 ft 475 kts 113°
2026-05-06 02:46 -7.23654 112.00207 34895 ft 475 kts 113°
2026-05-06 02:46 -7.26221 112.06345 34897 ft 476 kts 113°
2026-05-06 02:47 -7.28761 112.12448 34903 ft 476 kts 113°
2026-05-06 02:47 -7.31320 112.18597 34906 ft 476 kts 113°
2026-05-06 02:48 -7.33881 112.24749 34911 ft 476 kts 113°
2026-05-06 02:48 -7.36449 112.30898 34916 ft 476 kts 113°
2026-05-06 02:49 -7.39014 112.37054 34925 ft 476 kts 113°
2026-05-06 02:49 -7.41573 112.43206 34929 ft 476 kts 113°
2026-05-06 02:50 -7.44131 112.49353 34937 ft 476 kts 113°
2026-05-06 02:50 -7.46685 112.55501 34931 ft 475 kts 113°
2026-05-06 02:51 -7.49244 112.61643 34932 ft 475 kts 113°
2026-05-06 02:51 -7.51794 112.67782 34929 ft 475 kts 113°
2026-05-06 02:52 -7.54323 112.73884 34929 ft 475 kts 113°
2026-05-06 02:52 -7.56875 112.80022 34928 ft 475 kts 113°
2026-05-06 02:53 -7.59422 112.86165 34928 ft 475 kts 113°
2026-05-06 02:53 -7.61970 112.92317 34928 ft 475 kts 113°
2026-05-06 02:54 -7.64519 112.98464 34930 ft 475 kts 114°
2026-05-06 02:54 -7.67061 113.04611 34926 ft 475 kts 114°
2026-05-06 02:55 -7.69613 113.10755 34923 ft 475 kts 114°
2026-05-06 02:55 -7.72147 113.16860 34924 ft 475 kts 114°
2026-05-06 02:56 -7.74688 113.23008 34923 ft 475 kts 114°
2026-05-06 02:56 -7.77228 113.29155 34924 ft 475 kts 114°
2026-05-06 02:57 -7.79771 113.35301 34921 ft 475 kts 114°
2026-05-06 02:57 -7.82310 113.41458 34925 ft 476 kts 114°
2026-05-06 02:58 -7.84849 113.47624 34929 ft 476 kts 114°
2026-05-06 02:58 -7.87396 113.53789 34930 ft 477 kts 114°
2026-05-06 02:59 -7.89950 113.59965 34935 ft 477 kts 114°
2026-05-06 02:59 -7.92486 113.66104 34943 ft 478 kts 114°
2026-05-06 03:00 -7.95038 113.72290 34945 ft 478 kts 114°
2026-05-06 03:00 -7.97585 113.78488 34949 ft 478 kts 114°
2026-05-06 03:01 -8.00133 113.84686 34977 ft 477 kts 114°
2026-05-06 03:01 -8.02990 113.90679 34985 ft 472 kts 125°
2026-05-06 03:02 -8.06835 113.96024 34877 ft 471 kts 128°
2026-05-06 03:02 -8.08779 113.98702 34230 ft 474 kts 128°
2026-05-06 03:02 -8.10726 114.01390 33402 ft 476 kts 128°
2026-05-06 03:02 -8.12685 114.04099 32527 ft 479 kts 128°
2026-05-06 03:03 -8.14652 114.06821 31684 ft 481 kts 127°
2026-05-06 03:03 -8.16627 114.09556 30800 ft 483 kts 127°
2026-05-06 03:03 -8.18614 114.12305 29921 ft 486 kts 127°
2026-05-06 03:03 -8.20606 114.15060 28928 ft 487 kts 127°
2026-05-06 03:04 -8.22585 114.17791 27956 ft 477 kts 127°
2026-05-06 03:04 -8.24546 114.20492 27026 ft 482 kts 127°
2026-05-06 03:04 -8.26509 114.23196 26136 ft 484 kts 127°
2026-05-06 03:04 -8.28497 114.25938 25273 ft 483 kts 127°
2026-05-06 03:05 -8.30479 114.28684 24427 ft 485 kts 127°
2026-05-06 03:05 -8.32460 114.31434 23598 ft 483 kts 127°
2026-05-06 03:05 -8.34436 114.34175 22643 ft 481 kts 127°
2026-05-06 03:05 -8.36404 114.36902 21691 ft 480 kts 127°
2026-05-06 03:06 -8.38365 114.39619 20776 ft 478 kts 127°
2026-05-06 03:06 -8.40321 114.42330 19878 ft 477 kts 127°
2026-05-06 03:06 -8.42271 114.45031 19012 ft 470 kts 127°
2026-05-06 03:06 -8.44179 114.47672 18172 ft 465 kts 127°
2026-05-06 03:07 -8.46065 114.50286 17189 ft 452 kts 127°
2026-05-06 03:07 -8.47880 114.52799 16257 ft 436 kts 127°
2026-05-06 03:07 -8.49623 114.55212 15382 ft 427 kts 127°
2026-05-06 03:07 -8.51353 114.57610 14508 ft 420 kts 127°
2026-05-06 03:08 -8.53073 114.59995 13626 ft 416 kts 127°
2026-05-06 03:08 -8.54744 114.62312 12678 ft 401 kts 127°
2026-05-06 03:08 -8.56358 114.64550 11752 ft 387 kts 126°
2026-05-06 03:08 -8.57918 114.66714 10855 ft 375 kts 126°
2026-05-06 03:09 -8.59434 114.68813 9983 ft 365 kts 125°
2026-05-06 03:09 -8.60909 114.70854 9054 ft 355 kts 125°
2026-05-06 03:09 -8.62348 114.72847 8116 ft 346 kts 125°
2026-05-06 03:09 -8.63753 114.74794 7200 ft 338 kts 125°
2026-05-06 03:10 -8.65152 114.76735 6315 ft 346 kts 124°
2026-05-06 03:10 -8.66564 114.78699 5378 ft 342 kts 125°
2026-05-06 03:10 -8.67941 114.80616 4462 ft 332 kts 125°
2026-05-06 03:10 -8.69301 114.82508 3565 ft 336 kts 125°
2026-05-06 03:11 -8.70663 114.84399 3162 ft 327 kts 125°
2026-05-06 03:11 -8.71969 114.86211 3007 ft 310 kts 125°
2026-05-06 03:11 -8.73202 114.87924 2973 ft 290 kts 125°
2026-05-06 03:11 -8.74347 114.89516 2986 ft 270 kts 124°
2026-05-06 03:12 -8.75228 114.91073 2985 ft 248 kts 107°
2026-05-06 03:12 -8.75467 114.92733 2921 ft 232 kts 89°
2026-05-06 03:12 -8.75448 114.94305 2912 ft 217 kts 90°
2026-05-06 03:12 -8.75448 114.95799 2924 ft 206 kts 91°
2026-05-06 03:13 -8.75464 114.97206 2967 ft 196 kts 92°
2026-05-06 03:13 -8.75491 114.98568 2964 ft 192 kts 91°
2026-05-06 03:13 -8.75508 114.99904 2956 ft 187 kts 90°
2026-05-06 03:13 -8.75476 115.01180 2804 ft 178 kts 88°
2026-05-06 03:14 -8.75429 115.02417 2534 ft 174 kts 88°
2026-05-06 03:14 -8.75382 115.03621 2303 ft 166 kts 89°
2026-05-06 03:14 -8.75304 115.04746 2093 ft 156 kts 87°
2026-05-06 03:14 -8.75247 115.05800 1914 ft 146 kts 89°
2026-05-06 03:15 -8.75212 115.06832 1675 ft 150 kts 91°
2026-05-06 03:15 -8.75174 115.07866 1453 ft 146 kts 90°
2026-05-06 03:15 -8.75140 115.08875 1267 ft 142 kts 91°
2026-05-06 03:15 -8.75109 115.09876 1084 ft 143 kts 91°
2026-05-06 03:16 -8.75086 115.10892 886 ft 146 kts 90°
2026-05-06 03:16 -8.75049 115.11923 742 ft 145 kts 89°
2026-05-06 03:16 -8.74986 115.12930 558 ft 144 kts 88°
2026-05-06 03:16 -8.74947 115.13926 318 ft 143 kts 90°
2026-05-06 03:17 -8.74911 115.14931 146 ft 140 kts 89°
2026-05-06 03:17 -8.74875 115.15891 31 ft 133 kts 88°
2026-05-06 03:17 -8.74845 115.16666 28 ft 86 kts 88°
2026-05-06 03:17 -8.74827 115.17122 28 ft 54 kts 87°
2026-05-06 03:18 -8.74814 115.17297 27 ft 9 kts 61°
2026-05-06 03:18 -8.74759 115.17316 29 ft 7 kts 357°
2026-05-06 03:18 -8.74726 115.17314 30 ft 2 kts 357°
2026-05-06 03:18 -8.74716 115.17314 31 ft 5 kts 357°
2026-05-06 03:19 -8.74658 115.17280 31 ft 12 kts 292°
2026-05-06 03:19 -8.74660 115.17181 32 ft 16 kts 268°
2026-05-06 03:19 -8.74665 115.17052 32 ft 21 kts 267°
2026-05-06 03:19 -8.74672 115.16900 32 ft 21 kts 266°
2026-05-06 03:20 -8.74683 115.16627 31 ft 18 kts 268°
2026-05-06 03:20 -8.74688 115.16507 32 ft 16 kts 268°
2026-05-06 03:20 -8.74692 115.16397 33 ft 15 kts 268°
2026-05-06 03:21 -8.74671 115.16346 32 ft 8 kts 339°
2026-05-06 03:21 -8.74609 115.16342 31 ft 9 kts 357°
2026-05-06 03:21 -8.74571 115.16340 33 ft 0 kts 357°
2026-05-06 03:21 -8.74570 115.16340 33 ft 1 kts 357°
2026-05-06 03:22 -8.74563 115.16340 33 ft 0 kts 357°